TimeEST,TemperatureF,Dew PointF,Humidity,Sea Level PressureIn,VisibilityMPH,Wind Direction,Wind SpeedMPH,Gust SpeedMPH,PrecipitationIn,Events,Conditions,WindDirDegrees,DateUTC
12:14 AM,32.2,32.2,100,30.39,3.0,Calm,Calm,-,N/A,,Clear,0,2012-11-19 05:14:00
12:34 AM,33.1,33.1,100,30.38,3.0,Calm,Calm,-,N/A,,Clear,0,2012-11-19 05:34:00
12:55 AM,33.3,33.3,100,30.38,3.0,ENE,3.5,-,N/A,,Clear,60,2012-11-19 05:55:00
1:15 AM,33.3,33.3,100,30.37,3.0,Calm,Calm,-,N/A,,Scattered Clouds,0,2012-11-19 06:15:00
1:35 AM,33.3,33.3,100,30.36,3.0,Calm,Calm,-,N/A,,Scattered Clouds,0,2012-11-19 06:35:00
1:55 AM,33.3,33.3,100,30.36,4.0,Calm,Calm,-,N/A,,Clear,0,2012-11-19 06:55:00
2:15 AM,32.7,32.7,100,30.36,3.0,Calm,Calm,-,N/A,,Clear,0,2012-11-19 07:15:00
2:35 AM,33.3,33.3,100,30.37,4.0,Calm,Calm,-,N/A,,Clear,0,2012-11-19 07:35:00
2:55 AM,32.4,32.4,100,30.36,4.0,Calm,Calm,-,N/A,,Clear,0,2012-11-19 07:55:00
3:15 AM,29.1,29.1,100,30.36,4.0,Calm,Calm,-,N/A,,Clear,0,2012-11-19 08:15:00
3:36 AM,28.6,28.6,100,30.36,5.0,Calm,Calm,-,N/A,,Clear,0,2012-11-19 08:36:00
3:51 AM,28.4,28.4,100,30.36,4.0,Calm,Calm,-,N/A,,Clear,0,2012-11-19 08:51:00
4:11 AM,28.4,28.4,100,30.35,4.0,Calm,Calm,-,N/A,,Clear,0,2012-11-19 09:11:00
4:31 AM,28.4,28.4,100,30.34,3.0,Calm,Calm,-,N/A,,Clear,0,2012-11-19 09:31:00
4:51 AM,28.4,28.4,100,30.34,2.5,Calm,Calm,-,N/A,,Clear,0,2012-11-19 09:51:00
5:11 AM,26.1,26.1,100,30.34,2.0,Calm,Calm,-,N/A,,Clear,0,2012-11-19 10:11:00
5:31 AM,26.1,26.1,100,30.34,4.0,Calm,Calm,-,N/A,,Clear,0,2012-11-19 10:31:00
5:51 AM,26.8,26.8,100,30.33,4.0,Calm,Calm,-,N/A,,Clear,0,2012-11-19 10:51:00
6:12 AM,25.2,25.0,99,30.33,5.0,Calm,Calm,-,N/A,,Clear,0,2012-11-19 11:12:00
6:32 AM,23.2,22.8,99,30.33,1.0,Calm,Calm,-,N/A,,Mist,0,2012-11-19 11:32:00
6:52 AM,25.3,25.0,99,30.33,5.0,Calm,Calm,-,N/A,,Clear,0,2012-11-19 11:52:00
7:12 AM,24.1,23.4,97,30.33,5.0,Calm,Calm,-,N/A,,Clear,0,2012-11-19 12:12:00
7:32 AM,23.5,22.6,96,30.33,5.0,Calm,Calm,-,N/A,,Clear,0,2012-11-19 12:32:00
7:52 AM,23.7,23.0,97,30.33,5.0,Calm,Calm,-,N/A,,Clear,0,2012-11-19 12:52:00
8:32 AM,25.2,24.6,98,30.32,5.0,Calm,Calm,-,N/A,,Clear,0,2012-11-19 13:32:00
8:53 AM,28.4,28.2,99,30.32,5.0,Calm,Calm,-,N/A,,Clear,0,2012-11-19 13:53:00
9:13 AM,31.1,31.1,100,30.32,3.0,Calm,Calm,-,N/A,,Clear,0,2012-11-19 14:13:00
9:33 AM,33.3,33.1,99,30.32,4.0,Calm,Calm,-,N/A,,Clear,0,2012-11-19 14:33:00
9:53 AM,33.8,33.3,98,30.32,4.0,Calm,Calm,-,N/A,,Clear,0,2012-11-19 14:53:00
10:13 AM,35.8,34.2,94,30.31,5.0,Calm,Calm,-,N/A,,Clear,0,2012-11-19 15:13:00
10:33 AM,38.3,34.7,87,30.31,7.0,Calm,Calm,-,N/A,,Clear,0,2012-11-19 15:33:00
10:53 AM,38.8,34.2,83,30.31,7.0,Calm,Calm,-,N/A,,Clear,0,2012-11-19 15:53:00
11:13 AM,41.0,34.5,78,30.30,10.0,Calm,Calm,-,N/A,,Clear,0,2012-11-19 16:13:00
11:33 AM,42.1,34.0,73,30.29,10.0,Calm,Calm,-,N/A,,Clear,0,2012-11-19 16:33:00
11:54 AM,44.1,33.3,66,30.28,10.0,Calm,Calm,-,N/A,,Clear,0,2012-11-19 16:54:00
12:14 PM,45.9,34.0,63,30.27,10.0,Calm,Calm,-,N/A,,Scattered Clouds,0,2012-11-19 17:14:00
12:34 PM,48.4,35.1,60,30.26,10.0,Calm,Calm,-,N/A,,Clear,0,2012-11-19 17:34:00
12:54 PM,48.4,34.3,58,30.25,10.0,SE,4.6,-,N/A,,Scattered Clouds,140,2012-11-19 17:54:00
1:14 PM,48.6,33.4,56,30.24,10.0,South,3.5,-,N/A,,Clear,170,2012-11-19 18:14:00
1:34 PM,50.4,33.6,53,30.24,10.0,Calm,Calm,-,N/A,,Clear,0,2012-11-19 18:34:00
1:54 PM,52.3,34.3,50,30.23,10.0,South,3.5,-,N/A,,Clear,170,2012-11-19 18:54:00
2:14 PM,53.2,33.8,48,30.23,10.0,South,8.1,-,N/A,,Clear,170,2012-11-19 19:14:00
2:35 PM,50.9,32.0,48,30.23,10.0,SSE,5.8,-,N/A,,Clear,160,2012-11-19 19:35:00
2:55 PM,50.9,32.0,48,30.22,10.0,SSE,5.8,-,N/A,,Scattered Clouds,150,2012-11-19 19:55:00
3:15 PM,50.9,32.0,48,30.21,10.0,SSE,4.6,-,N/A,,Overcast,160,2012-11-19 20:15:00
3:35 PM,50.9,31.3,47,30.21,10.0,SSE,6.9,-,N/A,,Overcast,150,2012-11-19 20:35:00
3:55 PM,50.5,31.6,48,30.21,10.0,South,4.6,-,N/A,,Overcast,170,2012-11-19 20:55:00
4:15 PM,49.6,30.7,48,30.20,10.0,SSE,5.8,-,N/A,,Overcast,160,2012-11-19 21:15:00
4:35 PM,48.6,30.2,49,30.21,10.0,SSW,3.5,-,N/A,,Mostly Cloudy,200,2012-11-19 21:35:00
4:55 PM,48.4,30.6,50,30.21,10.0,Calm,Calm,-,N/A,,Mostly Cloudy,0,2012-11-19 21:55:00
5:16 PM,48.4,32.0,53,30.21,10.0,Calm,Calm,-,N/A,,Overcast,0,2012-11-19 22:16:00
5:31 PM,48.4,32.0,53,30.20,10.0,Calm,Calm,-,N/A,,Overcast,0,2012-11-19 22:31:00
5:51 PM,45.9,31.1,56,30.19,10.0,SE,3.5,-,N/A,,Overcast,140,2012-11-19 22:51:00
6:11 PM,45.9,31.5,57,30.20,10.0,Calm,Calm,-,N/A,,Overcast,0,2012-11-19 23:11:00
6:31 PM,45.7,31.8,58,30.19,10.0,SE,3.5,-,N/A,,Overcast,140,2012-11-19 23:31:00
6:51 PM,45.9,31.5,57,30.19,10.0,SSE,3.5,-,N/A,,Overcast,150,2012-11-19 23:51:00
7:11 PM,45.7,32.0,59,30.18,10.0,Calm,Calm,-,N/A,,Overcast,0,2012-11-20 00:11:00
7:31 PM,45.0,31.5,59,30.18,10.0,Calm,Calm,-,N/A,,Overcast,0,2012-11-20 00:31:00
7:52 PM,43.3,31.1,62,30.18,10.0,Calm,Calm,-,N/A,,Mostly Cloudy,0,2012-11-20 00:52:00
8:12 PM,43.3,32.0,64,30.18,10.0,Calm,Calm,-,N/A,,Mostly Cloudy,0,2012-11-20 01:12:00
8:52 PM,40.6,32.0,71,30.18,10.0,Calm,Calm,-,N/A,,Scattered Clouds,0,2012-11-20 01:52:00
9:12 PM,42.3,32.9,69,30.17,10.0,Calm,Calm,-,N/A,,Scattered Clouds,0,2012-11-20 02:12:00
9:32 PM,40.8,32.4,72,30.17,10.0,Calm,Calm,-,N/A,,Mostly Cloudy,0,2012-11-20 02:32:00
9:52 PM,39.4,32.5,76,30.17,10.0,Calm,Calm,-,N/A,,Mostly Cloudy,0,2012-11-20 02:52:00
10:32 PM,37.4,33.6,86,30.16,10.0,Calm,Calm,-,N/A,,Scattered Clouds,0,2012-11-20 03:32:00
10:52 PM,35.8,32.4,87,30.16,10.0,Calm,Calm,-,N/A,,Mostly Cloudy,0,2012-11-20 03:52:00
11:12 PM,35.8,32.2,87,30.15,10.0,Calm,Calm,-,N/A,,Mostly Cloudy,0,2012-11-20 04:12:00
11:32 PM,35.8,32.9,89,30.15,10.0,Calm,Calm,-,N/A,,Overcast,0,2012-11-20 04:32:00
11:53 PM,35.8,32.7,89,30.14,10.0,Calm,Calm,-,N/A,,Overcast,0,2012-11-20 04:53:00